Wind_Speed
6 4 3 7 9 9 8 10 10 10 11 11 10 10 11 12 13 13 13 14 15 17 19 22 23 21 18 17 13 6 20 7 2 4 4 4 4 3 2 3 5 5 7 5 4
8 7 5 9 11 11 12 12 12 10 11 12 11 10 11 12 12 11 13 13 15 13 17 20 23 21 22 16 14 16 15 8 6 6 1 4 5 4 3 6 5 4 4 3 5
9 11 9 11 13 14 15 12 12 11 10 12 12 13 11 11 12 12 13 12 12 12 15 13 22 23 21 12 8 12 13 9 7 3 5 4 4 3 1 3 1 1 2 1 3
10 13 14 14 15 17 16 13 11 10 10 11 10 11 12 11 9 11 12 12 11 11 10 9 13 15 15 17 5 11 7 8 8 4 4 8 5 2 3 3 3 5 5 5 6
11 15 18 17 18 19 17 15 12 11 9 9 10 8 9 10 10 12 13 13 11 10 10 8 8 4 20 12 11 0 3 4 5 5 7 4 2 3 3 5 7 8 10 10 12
11 15 21 19 20 20 20 16 15 12 10 9 9 8 8 8 8 10 12 12 12 12 8 8 6 11 15 8 11 4 4 2 1 1 5 3 5 7 8 8 8 10 11 12 12
13 14 20 19 21 21 21 20 17 15 13 12 10 9 8 9 8 7 8 9 10 10 8 9 7 5 8 11 7 4 6 9 5 7 7 3 3 3 4 7 9 10 11 9 11
17 17 18 19 22 22 21 20 20 18 16 15 14 12 9 9 7 7 7 7 6 7 7 6 7 5 8 6 6 8 2 14 4 6 5 2 1 5 6 6 8 11 11 13 15
20 20 20 20 23 23 22 21 20 20 19 18 16 15 13 11 10 8 6 6 6 5 5 4 6 4 3 3 4 6 3 3 6 12 8 6 7 7 8 5 6 9 8 7 12
22 22 22 22 23 23 24 23 23 22 22 20 19 18 17 17 14 11 8 8 7 6 5 5 6 8 6 3 3 5 2 6 6 8 3 4 6 10 12 8 9 8 6 7 9
26 24 24 24 24 24 25 26 26 26 23 23 22 21 18 18 15 16 14 13 11 9 7 8 9 3 13 7 8 6 1 3 10 12 5 6 8 10 6 17 11 14 11 8 13
29 29 28 27 27 27 28 28 25 25 24 25 23 24 21 19 21 20 18 16 14 12 14 13 10 10 17 13 10 9 11 2 10 11 7 8 8 10 16 15 18 19 19 17 15
33 32 31 31 30 30 29 30 28 29 28 28 26 27 25 25 25 23 23 20 18 18 16 15 10 12 14 17 14 8 9 12 10 11 9 10 9 11 13 14 15 16 20 24 17
32 33 34 34 34 34 34 32 32 31 32 31 30 29 30 26 28 26 24 24 23 22 20 18 15 17 24 9 9 6 23 16 19 11 11 12 8 15 17 12 19 21 15 19 27
30 30 32 33 32 36 30 33 33 34 32 36 35 35 32 30 30 29 26 28 27 26 25 21 22 24 20 22 19 17 25 17 16 13 15 7 16 18 20 17 10 6 13 15 20
29 29 29 30 33 31 32 30 29 31 30 35 38 31 32 30 32 33 31 30 29 29 30 28 23 25 22 28 20 19 22 21 20 11 10 9 13 23 19 20 20 16 18 9 15
29 29 29 29 27 29 32 31 31 32 28 31 35 27 28 27 28 31 30 30 32 31 31 30 30 24 25 27 15 18 20 13 15 17 15 25 20 12 11 19 27 17 26 12 14
30 28 29 30 28 27 30 33 35 27 27 12 31 26 24 25 25 27 30 26 30 31 29 31 29 28 31 28 25 24 18 18 14 19 19 25 27 18 13 21 20 17 20 17 13
31 30 29 30 30 29 29 32 27 23 11 23 18 23 23 24 26 27 29 25 27 28 30 24 22 21 24 25 22 18 18 22 21 25 16 23 9 22 7 10 10 5 12 14 2
32 32 32 31 32 33 31 25 24 28 23 22 26 20 18 21 24 27 29 24 27 25 27 24 19 21 23 22 25 20 30 33 20 19 27 12 27 27 26 17 18 11 7 11 14
31 34 32 34 34 35 31 26 27 31 32 31 28 19 16 17 21 23 23 22 22 24 25 29 22 16 19 31 22 20 33 26 17 23 25 25 26 26 12 19 22 4 10 4 18
32 33 33 35 34 33 32 31 31 32 31 29 30 29 25 19 20 23 23 23 19 21 27 28 26 18 21 24 23 25 18 20 12 24 13 11 21 24 23 25 4 12 17 19 21
33 36 32 36 35 33 33 33 34 33 31 29 29 29 29 25 24 20 23 21 22 22 23 26 35 24 21 21 24 20 27 23 18 19 18 23 17 12 19 11 13 16 20 22 20
36 37 31 35 35 35 35 35 34 34 34 31 30 29 30 31 25 17 21 19 22 30 25 28 27 28 24 19 17 19 17 21 25 25 27 31 30 36 25 22 14 9 12 18 23
35 35 38 38 35 36 34 32 34 34 33 34 34 33 32 27 25 18 16 17 27 35 23 29 28 24 25 26 18 22 20 19 22 29 26 25 18 28 21 7 25 10 1 13 21
36 42 43 35 37 38 36 36 35 35 34 33 36 34 29 27 15 14 20 20 27 28 23 22 26 25 23 23 20 19 18 19 20 19 35 30 19 14 31 20 20 22 4 17 16
34 34 35 35 37 37 36 36 35 35 36 34 36 32 28 27 24 32 32 24 24 24 24 22 22 24 22 21 22 24 22 22 18 19 15 13 11 11 14 19 28 13 9 22 24
Wind_Direction
248 246 180 157 168 164 158 138 127 117 114 120 122 114 102 105 113 117 117 111 115 116 120 125 129 128 114 96 113 27 72 40 122 129 258 250 251 258 274 260 274 272 286 298 310
236 235 214 173 170 166 160 145 133 126 112 112 121 123 114 105 102 109 128 124 100 115 120 123 118 116 113 98 105 104 83 29 33 70 299 282 267 245 263 266 275 317 300 322 315
237 227 219 188 174 172 168 162 145 138 126 114 111 117 124 114 104 94 114 130 112 110 125 113 111 120 99 115 86 99 84 147 172 13 60 123 88 193 324 334 343 11 302 163 222
248 229 216 199 183 180 177 174 165 153 145 135 124 115 116 115 99 105 97 107 114 107 130 116 121 151 134 123 54 123 131 113 114 121 84 90 89 63 44 1 357 343 333 353 328
251 233 211 205 196 186 188 182 181 171 167 158 152 148 137 127 116 114 114 102 105 111 136 114 68 0 87 111 186 209 114 117 122 127 92 91 343 14 353 341 335 325 326 332 316
250 226 208 206 204 196 193 197 194 192 184 186 176 168 156 142 132 121 119 121 116 103 135 115 87 98 76 73 28 124 256 20 118 135 79 23 329 335 16 356 340 336 334 326 320
234 214 207 212 207 208 202 201 207 205 200 199 199 199 189 178 163 148 136 129 131 135 124 107 108 90 114 93 62 102 109 30 35 7 40 358 33 21 16 353 354 336 325 320 322
227 214 212 217 214 212 214 208 206 210 211 209 211 208 199 213 192 176 164 162 158 151 149 127 135 178 174 104 87 21 240 194 0 32 30 14 30 341 12 22 344 352 341 325 323
230 225 223 220 217 217 215 219 218 214 216 218 219 217 209 223 221 205 199 199 184 181 181 171 159 197 165 138 143 217 70 351 61 344 317 328 330 4 332 327 332 334 344 16 3
233 229 228 224 220 220 221 222 225 224 223 222 223 224 215 222 227 230 219 227 225 213 202 207 221 214 202 269 53 264 46 52 330 343 327 314 338 324 334 328 328 338 328 338 353
240 237 233 230 229 227 228 229 229 230 229 229 225 229 220 229 237 238 233 230 239 239 230 224 228 295 308 251 262 227 286 9 329 291 293 286 312 306 287 315 321 326 320 328 346
243 242 241 238 234 233 234 234 234 235 234 238 236 236 231 232 235 241 242 244 238 237 243 246 240 189 219 246 248 221 259 249 266 271 270 291 308 306 306 306 315 322 323 330 334
246 244 243 242 241 240 238 239 238 239 238 241 241 242 241 238 241 240 244 244 242 237 238 246 255 289 248 252 228 232 290 272 250 281 259 268 269 289 290 298 320 313 303 317 329
245 245 246 245 243 242 242 243 244 245 244 244 242 244 245 244 245 246 245 247 246 245 239 236 232 211 278 263 270 253 257 241 258 293 267 275 310 322 292 262 315 313 319 330 319
246 244 244 243 242 244 246 243 243 243 243 242 241 245 247 248 248 246 243 243 244 247 245 240 227 225 225 237 244 241 260 268 270 275 277 281 303 269 282 297 269 189 306 313 305
245 243 242 241 239 238 237 239 238 239 242 247 250 244 246 246 247 250 246 243 239 238 241 242 232 235 220 265 265 241 265 268 265 288 284 259 234 249 257 279 261 300 305 304 302
244 243 241 241 241 237 236 235 234 239 230 249 251 248 246 244 240 245 248 243 247 245 243 242 238 231 237 231 234 235 256 264 276 272 268 262 223 260 276 280 290 287 290 296 296
240 240 238 238 235 236 234 231 233 235 232 243 259 250 247 243 239 242 248 241 238 234 236 238 239 227 244 252 242 227 237 252 241 269 255 276 263 261 181 263 284 314 286 288 316
238 237 235 234 232 231 231 232 232 223 228 225 255 253 246 243 240 240 246 241 241 235 232 225 238 246 241 258 241 230 240 255 230 265 298 300 216 308 221 230 195 253 332 309 6
236 235 232 232 229 228 229 229 219 213 214 191 227 241 239 247 238 240 245 240 238 231 224 201 225 240 250 253 255 185 227 233 194 243 272 260 286 280 267 255 288 77 308 308 294
237 234 230 230 230 229 228 224 221 224 224 224 224 211 236 224 241 233 237 239 240 231 222 202 193 220 228 235 236 223 230 241 206 227 230 235 245 271 270 275 269 62 289 288 288
236 235 228 230 230 229 226 225 224 225 232 231 228 223 197 224 230 232 229 236 237 234 222 211 196 220 225 241 237 222 237 250 237 275 235 285 300 310 295 267 206 66 247 264 291
235 236 227 230 229 228 225 224 225 226 230 226 224 224 216 215 210 225 245 214 232 224 222 211 198 206 222 226 246 242 223 226 248 237 258 258 252 246 282 313 34 277 299 296 282
234 236 228 229 227 226 223 222 225 227 228 228 222 223 222 226 204 215 225 211 228 228 231 205 215 216 214 211 245 252 267 240 229 232 236 235 241 259 249 251 222 248 292 302 303
232 231 229 225 225 227 225 227 222 224 226 226 222 220 225 222 214 209 226 207 217 232 230 207 215 215 224 199 218 252 250 270 251 224 241 269 305 327 280 261 227 277 115 313 326
228 227 233 228 221 223 222 222 220 220 224 223 223 224 225 212 190 207 215 205 234 242 225 221 211 213 216 219 222 242 226 234 267 258 232 236 251 271 271 301 293 273 133 276 267
236 234 231 223 223 223 222 221 222 219 221 224 224 224 214 205 185 200 205 196 242 248 230 217 213 204 217 225 227 235 238 240 240 250 262 280 266 276 287 303 295 253 252 250 258
Height
5909 5910 5911 5912 5913 5913 5913 5914 5915 5915 5915 5915 5916 5916 5918 5918 5918 5919 5920 5921 5921 5921 5922 5924 5925 5924 5924 5930 5927 5914 5918 5928 5931 5932 5933 5934 5937 5938 5938 5938 5938 5940 5940 5942 5941
5908 5909 5910 5912 5913 5914 5914 5915 5917 5917 5917 5917 5918 5919 5919 5920 5920 5921 5923 5923 5924 5925 5926 5928 5928 5930 5927 5929 5928 5931 5932 5932 5933 5934 5935 5937 5938 5939 5940 5938 5938 5939 5940 5941 5941
5906 5908 5909 5911 5914 5914 5915 5916 5918 5919 5919 5919 5920 5920 5921 5922 5923 5923 5924 5925 5927 5928 5928 5929 5929 5929 5929 5931 5935 5937 5940 5938 5936 5937 5937 5937 5939 5939 5940 5940 5939 5940 5940 5941 5942
5905 5906 5908 5910 5912 5914 5916 5917 5918 5919 5920 5921 5921 5922 5923 5924 5926 5925 5926 5927 5930 5930 5929 5930 5931 5925 5926 5930 5936 5937 5939 5938 5938 5938 5938 5939 5939 5940 5942 5943 5941 5940 5941 5941 5942
5902 5903 5905 5908 5910 5913 5915 5917 5918 5920 5921 5922 5923 5923 5924 5926 5926 5927 5929 5930 5931 5932 5931 5933 5933 5931 5928 5933 5934 5939 5939 5940 5940 5939 5939 5941 5942 5941 5942 5942 5942 5942 5940 5942 5942
5900 5900 5903 5906 5908 5911 5914 5916 5917 5919 5921 5922 5923 5924 5925 5928 5928 5929 5930 5932 5933 5934 5934 5934 5935 5935 5930 5937 5936 5937 5941 5941 5941 5941 5942 5942 5942 5942 5941 5942 5943 5943 5942 5942 5942
5897 5898 5901 5903 5906 5909 5912 5915 5916 5917 5919 5921 5923 5924 5925 5928 5929 5930 5931 5932 5934 5936 5936 5935 5936 5935 5935 5936 5941 5943 5942 5943 5942 5943 5944 5943 5944 5942 5943 5943 5943 5944 5943 5942 5941
5895 5896 5899 5901 5903 5906 5909 5912 5915 5916 5918 5920 5921 5923 5925 5926 5928 5930 5931 5933 5934 5936 5937 5938 5938 5939 5938 5939 5941 5943 5942 5939 5941 5942 5944 5945 5944 5942 5943 5944 5944 5944 5943 5943 5941
5891 5893 5896 5898 5900 5903 5906 5908 5911 5914 5916 5917 5920 5922 5924 5925 5927 5929 5931 5932 5934 5935 5937 5939 5940 5940 5941 5942 5944 5944 5944 5943 5938 5944 5944 5945 5944 5945 5945 5945 5946 5945 5945 5944 5942
5886 5889 5892 5894 5898 5900 5902 5905 5907 5910 5912 5915 5917 5921 5922 5923 5925 5927 5930 5931 5932 5934 5936 5938 5938 5940 5942 5943 5944 5943 5944 5943 5944 5946 5945 5946 5945 5945 5945 5945 5944 5945 5945 5943 5942
5881 5884 5887 5890 5893 5896 5899 5901 5904 5906 5909 5912 5914 5916 5919 5922 5924 5925 5928 5930 5931 5933 5934 5935 5936 5938 5942 5940 5943 5942 5944 5946 5945 5946 5947 5946 5946 5946 5947 5943 5943 5942 5941 5941 5939
5875 5878 5881 5885 5888 5891 5893 5896 5900 5903 5905 5907 5910 5912 5915 5919 5920 5923 5925 5928 5930 5932 5932 5933 5935 5936 5938 5940 5942 5941 5944 5947 5948 5944 5945 5945 5945 5945 5944 5943 5941 5938 5937 5936 5936
5868 5871 5874 5878 5881 5884 5887 5890 5893 5896 5899 5902 5905 5908 5912 5914 5916 5919 5922 5924 5927 5928 5930 5932 5933 5935 5937 5938 5941 5941 5944 5944 5945 5943 5944 5944 5944 5945 5944 5943 5942 5940 5938 5933 5934
5860 5863 5866 5870 5875 5876 5880 5884 5887 5889 5893 5897 5901 5903 5905 5909 5911 5914 5918 5921 5922 5925 5927 5930 5932 5936 5936 5937 5939 5944 5938 5941 5944 5941 5943 5943 5944 5946 5943 5942 5939 5938 5936 5936 5930
5852 5855 5858 5861 5865 5869 5875 5876 5879 5882 5887 5889 5893 5895 5899 5904 5905 5907 5912 5914 5917 5920 5923 5927 5929 5930 5935 5936 5937 5937 5936 5940 5941 5940 5940 5942 5941 5945 5944 5939 5934 5932 5938 5936 5929
5844 5848 5851 5854 5857 5862 5864 5868 5871 5876 5878 5881 5884 5889 5892 5896 5898 5901 5905 5908 5912 5914 5916 5919 5924 5926 5929 5930 5932 5934 5933 5937 5938 5938 5938 5937 5941 5937 5938 5936 5934 5931 5933 5937 5932
5837 5840 5843 5846 5851 5854 5857 5861 5865 5867 5874 5873 5876 5882 5885 5889 5892 5893 5897 5902 5904 5908 5911 5914 5918 5922 5924 5926 5930 5935 5935 5936 5939 5936 5936 5933 5934 5937 5935 5933 5932 5933 5929 5933 5930
5829 5832 5836 5838 5842 5846 5849 5853 5857 5866 5868 5873 5869 5875 5879 5882 5885 5887 5889 5894 5897 5901 5905 5908 5912 5916 5917 5921 5925 5930 5933 5936 5936 5935 5932 5931 5928 5931 5930 5938 5934 5929 5927 5927 5926
5821 5824 5828 5831 5834 5838 5842 5844 5854 5861 5866 5869 5869 5868 5873 5875 5879 5880 5883 5888 5890 5895 5899 5905 5909 5915 5915 5915 5919 5925 5928 5932 5932 5929 5931 5925 5905 5920 5930 5930 5930 5929 5927 5924 5926
5812 5816 5820 5823 5827 5831 5835 5842 5847 5852 5854 5859 5866 5866 5868 5870 5872 5874 5877 5882 5884 5889 5894 5900 5908 5912 5914 5914 5913 5918 5920 5920 5926 5930 5929 5931 5927 5927 5929 5926 5925 5916 5930 5927 5923
5804 5807 5813 5815 5819 5824 5831 5837 5841 5842 5846 5852 5856 5861 5865 5871 5870 5871 5873 5877 5879 5883 5888 5895 5901 5910 5912 5909 5912 5914 5912 5919 5922 5922 5923 5924 5922 5912 5919 5920 5921 5921 5927 5926 5920
5795 5798 5804 5807 5813 5817 5824 5830 5833 5835 5840 5845 5849 5852 5858 5865 5870 5870 5872 5874 5876 5878 5881 5889 5895 5902 5906 5908 5908 5911 5916 5916 5916 5909 5924 5924 5917 5915 5921 5917 5919 5912 5922 5920 5922
5786 5788 5795 5798 5804 5810 5815 5820 5824 5828 5833 5837 5842 5846 5850 5855 5862 5868 5868 5873 5874 5875 5876 5882 5886 5895 5902 5907 5905 5904 5907 5910 5916 5919 5921 5923 5921 5905 5918 5916 5916 5920 5916 5916 5917
5777 5780 5788 5790 5795 5800 5805 5811 5816 5821 5826 5830 5835 5840 5844 5847 5853 5861 5865 5868 5870 5870 5872 5877 5883 5888 5895 5901 5905 5902 5903 5906 5909 5913 5916 5914 5914 5909 5912 5914 5916 5916 5914 5913 5912
5767 5772 5773 5780 5787 5792 5798 5804 5808 5814 5819 5823 5827 5832 5836 5843 5848 5855 5860 5865 5864 5861 5867 5871 5877 5884 5888 5893 5900 5902 5901 5900 5901 5903 5906 5900 5904 5890 5903 5896 5909 5908 5914 5910 5906
5755 5757 5760 5773 5778 5782 5789 5794 5800 5806 5811 5816 5820 5825 5831 5837 5846 5854 5855 5860 5858 5858 5862 5867 5872 5879 5883 5889 5893 5895 5899 5900 5900 5900 5903 5905 5909 5914 5902 5898 5902 5906 5905 5908 5905
5746 5752 5757 5763 5768 5775 5781 5787 5793 5798 5803 5808 5813 5819 5825 5832 5837 5837 5843 5852 5854 5854 5857 5862 5866 5872 5878 5884 5887 5889 5892 5895 5898 5900 5902 5903 5907 5909 5908 5903 5899 5899 5900 5899 5898